User: anonymous   Login
Location: Unspecified
(0.0000°N, 0.0000°E)
Time: 00:39:48
(UTC+00:00)
Language:

Aussat K3 - Orbit

View from above orbital plane
View from above orbital plane
View from above satellite
View from above satellite

Ground track
Ground track

The orbit data is extracted from the following two-line orbital elements,

1 18350U 87078A   14291.74962657 -.00000280  00000-0  00000+0 0  1790
2 18350 013.8393 028.5059 0004497 231.8212 191.1756 00.98909104 98397
Epoch (UTC): 18 October 2014 17:59:27
Eccentricity: 0.0004497
inclination: 13.8393°
perigee height: 36153 km
apogee height: 36192 km
right ascension of ascending node: 28.5059°
argument of perigee: 231.8212°
revolutions per day: 0.98909104
mean anomaly at epoch: 191.1756°
orbit number at epoch: 9839

The dashed part of the orbit path shows where the satellite is in the earth's shadow,  

DLR